TIME,DELAY(SENSOR),PRES,OXYGEN,RAWTEMP,T(OPTODE),TCPHASE,FLUOR,BETA(BETA700),BETA(BETA412),BETA(BETA440),CDOM,C(CSC),ED(ED412.20),ED(ED444.00),ED(ED489.60),ED(ED554.30),LU(LU412.10),LU(LU443.90),LU(LU489.70),LU(LU554.70),COMP,TILTX,TILTY,CHECK
1340939877,5811,896.4000244140625000,38.9071807861328100,564.9530029296875000,4.3322911262512210,55.7240104675293000,55,103,102,78,83,15557,0,0,0,0,2147123565,2147775222,2147569728,2147571273,127,3,13,6620
1340943473,5811,987.4600219726562000,42.6576309204101560,570.9746704101562000,4.1452689170837400,55.2331199645996100,56,100,100,79,83,15554,0,0,0,0,2147124580,2147777600,2147571812,2147575332,3471,3,13,54589
1340947073,5810,994.8200073242188000,41.7472686767578100,572.0073852539062000,4.1131629943847660,55.3812713623046900,55,99,101,79,84,15558,0,0,0,0,2147122112,2147774317,2147572041,2147573467,3546,3,13,7201
1340950673,5808,1008.5000000000000000,41.0895881652832000,573.6282958984375000,4.0627541542053220,55.4962501525878900,55,98,103,77,84,15556,0,0,0,0,2147120283,2147774089,2147579428,2147573184,341,3,13,44003
1340954273,5809,1014.7199707031250000,40.9046516418457000,573.6948242187500000,4.0606861114501950,55.5178413391113300,54,98,100,78,83,15555,0,0,0,0,2147124187,2147774262,2147574902,2147569106,285,3,13,22795
1340957873,5809,1014.2800292968750000,40.8558998107910160,573.7755737304688000,4.0581722259521480,55.5283393859863300,55,99,101,77,85,15553,0,0,0,0,2147124891,2147772891,2147576457,2147571565,3465,3,13,23294
1340961473,5810,1015.8800048828125000,40.8189888000488300,574.1027221679688000,4.0479950904846190,55.5391197204589840,55,99,102,77,83,15556,0,0,0,0,2147124041,2147773019,2147573028,2147573686,466,3,13,56632
1340965073,5809,1015.0800170898438000,41.6820297241210940,573.9860839843750000,4.0516238212585450,55.4103889465332000,54,99,101,78,83,15557,0,0,0,0,2147120018,2147778916,2147576402,2147570706,3589,3,13,12647
1340968673,5812,1015.0599975585938000,41.2435607910156250,575.0449829101562000,4.0186748504638670,55.4869194030761700,55,98,103,78,83,15556,0,0,0,0,2147122075,2147778578,2147567917,2147571117,57,3,13,2786
1340972273,5806,1007.9699707031250000,40.9998817443847660,575.5250244140625000,4.0037379264831540,55.5250015258789060,55,99,102,78,83,15554,0,0,0,0,2147122057,2147774930,2147574976,2147572324,469,3,13,63818
1340975873,5811,1008.2299804687500000,40.7814598083496100,576.5189208984375000,3.9728009700775146,55.5667915344238300,55,97,101,77,84,15556,0,0,0,0,2147124425,2147778651,2147572452,2147574464,262,3,13,30231
1340979473,5811,1010.6599731445312000,40.8465194702148440,576.3659057617188000,3.9775640964508057,55.5587196350097660,55,99,101,78,83,15557,0,0,0,0,2147122514,2147776009,2147573549,2147572617,116,3,13,28581
1340983073,5810,1012.0900268554688000,40.5811996459960940,576.5480957031250000,3.9718930721282960,55.6024284362793000,55,98,100,78,84,15557,0,0,0,0,2147123355,2147775113,2147572214,2147572562,201,3,13,1642
1340986673,5809,1016.9500122070312000,41.8043785095214840,575.5283203125000000,4.0036349296569820,55.4072914123535160,56,98,100,78,84,15555,0,0,0,0,2147123328,2147775186,2147573531,2147574345,439,3,13,27793
1340990273,5808,1021.7800292968750000,40.9096183776855500,575.2725219726562000,4.0115971565246580,55.5342407226562500,55,99,102,78,85,15554,0,0,0,0,2147121709,2147772434,2147570377,2147574052,458,3,13,22312
1340993873,5811,1020.2899780273438000,40.6882591247558600,574.9857788085938000,4.0205168724060060,55.5680084228515600,54,101,102,77,82,15555,0,0,0,0,2147121216,2147778697,2147573686,2147574445,3508,3,13,58812
1340997473,5810,1019.5900268554688000,40.4558906555175800,575.3256835937500000,4.0099411010742190,55.6021614074707000,55,98,103,78,83,15554,0,0,0,0,2147123757,2147772160,2147573897,2147575259,3544,3,13,49304
1341001073,5808,1022.7500000000000000,40.9151496887207000,574.9299926757812000,4.0222549438476560,55.5351409912109400,56,99,102,78,83,15555,0,0,0,0,2147120137,2147778349,2147579282,2147573595,3504,3,13,5527
1341004673,5808,1013.4099731445312000,40.5198097229003900,575.5560913085938000,4.0027709007263180,55.6002693176269500,55,100,101,77,84,15555,0,0,0,0,2147120603,2147770816,2147574756,2147570605,198,3,13,33548
1341008273,5810,1021.6099853515625000,41.5487098693847660,575.7390747070312000,3.9970738887786865,55.4513206481933600,55,100,102,78,83,15553,0,0,0,0,2147119981,2147779126,2147577709,2147574957,3416,3,13,14190
1341011873,5810,1011.9099731445312000,41.4293899536132800,575.7960205078125000,3.9953060150146484,55.4644889831543000,55,98,100,79,83,15554,0,0,0,0,2147122230,2147768758,2147570112,2147570020,719,3,13,7689
1341015473,5809,1016.4899902343750000,40.2450904846191400,576.7457275390625000,3.9657399654388428,55.6514396667480500,55,100,101,77,84,15553,0,0,0,0,2147123446,2147772662,2147571620,2147577179,472,3,13,15112
1341019073,5814,1019.6699829101562000,40.8712387084960940,576.5228271484375000,3.9726788997650146,55.5580406188964840,55,96,101,78,84,15555,0,0,0,0,2147124955,2147770322,2147575414,2147575113,3,3,13,8226
1341022673,5810,1030.8399658203125000,42.0844001770019500,575.2365112304688000,4.0127182006835940,55.3640594482421900,56,100,102,78,83,15547,0,0,0,0,2147120740,2147774418,2147575113,2147572370,3416,3,13,25015
1341026273,5812,1030.6400146484375000,40.8648910522460940,574.3712768554688000,4.0396399497985840,55.5353889465332000,54,97,100,78,83,15551,0,0,0,0,2147125129,2147771501,2147576128,2147571602,3466,3,13,41120
1341029873,5811,1023.1400146484375000,40.2373008728027340,575.1890869140625000,4.0141911506652830,55.6365013122558600,54,97,102,98,83,15543,0,0,0,0,2147121792,2147770157,2147573750,2147573650,3410,3,13,36912
1341033473,5810,1024.5999755859375000,41.4105911254882800,575.2061157226562000,4.0136637687683105,55.4614486694335940,55,108,100,78,83,15552,0,0,0,0,2147122678,2147774144,2147573787,2147574235,3596,3,13,56430
1341037073,5810,1014.7299804687500000,41.1434783935546900,576.4061889648438000,3.9763109683990480,55.5116882324218750,55,99,103,79,83,15542,0,0,0,0,2147125330,2147774720,2147573366,2147570624,3522,3,13,51665
1341040673,5809,1023.2100219726562000,41.6973800659179700,575.2988281250000000,4.0107779502868650,55.4219207763671900,56,100,102,77,84,15544,0,0,0,0,2147121819,2147773970,2147572123,2147573750,651,3,13,51860
1341044273,5811,1024.4499511718750000,41.3511810302734400,575.5172729492188000,4.0039768218994140,55.4714508056640600,55,98,101,80,83,15502,0,0,0,0,2147122843,2147775067,2147572809,2147571044,37,3,13,50799
1341047873,5812,1030.9200439453125000,41.1809501647949200,575.8283081054688000,3.9942989349365234,55.5060882568359400,55,99,102,78,84,15539,0,0,0,0,2147122998,2147777051,2147574326,2147571273,448,3,13,1157
1341051473,5811,1027.9799804687500000,41.5919609069824200,575.1510009765625000,4.0153789520263670,55.4321517944335940,55,100,101,78,83,15542,0,0,0,0,2147121728,2147775552,2147571849,2147572553,3509,3,13,61316
1341055073,5809,1020.5999755859375000,40.7627182006835940,576.3668212890625000,3.9775369167327880,55.5686988830566400,55,99,101,79,83,15528,0,0,0,0,2147125339,2147774061,2147573622,2147571821,299,3,13,28304
1341058673,5808,1024.3000488281250000,40.0009117126464840,576.6176757812500000,3.9697270393371580,55.6883010864257800,55,98,101,77,83,15530,0,0,0,0,2147123062,2147775030,2147572187,2147573796,121,3,13,44672
1341062273,5807,1022.1900024414062000,39.5923309326171900,576.6848144531250000,3.9676361083984375,55.7482414245605500,54,98,101,79,84,15518,0,0,0,0,2147123044,2147770450,2147575634,2147573412,128,3,13,39081
1341065873,5809,1022.9199829101562000,40.4584312438964840,576.6546020507812000,3.9685759544372560,55.6218986511230500,55,98,102,78,84,15532,0,0,0,0,2147120969,2147774445,2147572818,2147570861,450,3,13,6583
1341069473,5810,1018.3200073242188000,40.4498596191406250,576.7957153320312000,3.9641859531402590,55.6201210021972660,55,99,100,79,83,15531,0,0,0,0,2147125604,2147773577,2147575469,2147570861,33,3,13,13664
1341073073,5810,1022.1400146484375000,41.3071098327636700,576.8527832031250000,3.9624080657958984,55.4922218322753900,55,100,100,79,84,15529,0,0,0,0,2147122422,2147775890,2147572772,2147571510,303,3,13,29251
1341076673,5808,1023.5399780273438000,40.5969696044921900,576.5006103515625000,3.9733719825744630,55.5960502624511700,55,99,101,78,84,15531,0,0,0,0,2147122212,2147771986,2147574738,2147572973,238,3,13,45623
1341080273,5809,1034.8199462890625000,41.3502006530761700,575.8421020507812000,3.9938700199127197,55.4763298034668000,54,99,102,78,84,15530,0,0,0,0,2147123776,2147774509,2147571803,2147573156,3321,3,13,26774
1341083873,5809,1032.5999755859375000,41.1273002624511700,575.1627197265625000,4.0150132179260250,55.5048789978027340,54,97,101,79,84,15528,0,0,0,0,2147122029,2147773339,2147574400,2147572809,385,3,13,52258
1341084357,5807,1029.9399414062500000,40.9908599853515600,575.1248168945312000,4.0161929130554200,55.5220489501953100,55,105,101,128,84,15525,0,0,0,0,2147121536,2147772836,2147572324,2147569947,234,3,13,42598
